Regional Weather Roundup
Issued by NWS Huntsville, AL

Home | Current Version | Previous Version | Text Only | Print | Product List | Glossary On
Versions: 1 2 3 4 5 6 7 8 9 10 11 12 13 14 15 16 17 18 19 20 21 22 23 24 25 26 27 28 29 30 31 32 33 34 35 36 37 38 39 40 41 42 43 44 45 46 47 48 49
000
ASUS44 KHUN 021810
RWRHUN

WEATHER ROUNDUP FOR THE TENNESSEE VALLEY
NATIONAL WEATHER SERVICE HUNTSVILLE AL
100 PM CDT THU JUL 02 2015

ALZ001>004-021900-
NORTHWEST ALABAMA

CITY           SKY/WX    TMP DP  RH WIND       PRES   REMARKS
BANKHEAD NF      N/A     80  68  66 W6          N/A
SHOALS AIRPORT CLOUDY    84  69  60 SW13      29.96F
6HR MIN TEMP:  76; 6HR MAX TEMP:  86;

SHOALS TVA RES   N/A     81 N/A N/A MISG        N/A
$$

ALZ005>007-016-021900-
NORTH CENTRAL ALABAMA

CITY           SKY/WX    TMP DP  RH WIND       PRES   REMARKS
DECATUR AP     PTSUNNY   84  67  56 W16G25    29.96F
6HR MIN TEMP:  73; 6HR MAX TEMP:  88; 6HR PCP: TRACE;

HUNTSVILLE AP  PTSUNNY   87  67  51 SW15      29.96F HX  90
6HR MIN TEMP:  75; 6HR MAX TEMP:  89; 6HR PCP: TRACE;

HUN NWS/UAH      N/A     86  62  45 W14         N/A
REDSTONE ARSN  MOSUNNY   86  68  55 W13G23    29.95F
$$

ALZ008>010-021900-
NORTHEAST ALABAMA

CITY           SKY/WX    TMP DP  RH WIND       PRES   REMARKS
FORT PAYNE     NOT AVBL
SCOTTSBORO AP  TSTM      77  73  88 NW15G23   29.99R
SCOTTSBORO HCN   N/A     79 N/A N/A MISG        N/A
VALLEY HEAD      N/A     77 N/A N/A MISG        N/A
$$

TNZ076-096-097-021900-
SOUTHEASTERN MIDDLE TENNESSEE

CITY           SKY/WX    TMP DP  RH WIND       PRES   REMARKS
TULLAHOMA      MOSUNNY   73  70  88 SE9       29.98F
WINCHESTER     PTSUNNY   73  72  94 SE9       29.98F
$$

...SURROUNDING SITES...

CITY           SKY/WX    TMP DP  RH WIND       PRES   REMARKS
ATLANTA        PTSUNNY   84  70  62 SW13G24   30.01F
ANNISTON       PTSUNNY   84  71  65 SW18      30.02F
BIRMINGHAM     CLOUDY    86  70  58 W13       30.03F HX  90
CHATTANOOGA    LGT RAIN  71  69  93 SW10      30.01F
CORINTH        FAIR      79  68  69 SW10G17   29.94S
DALTON         NOT AVBL
GADSDEN        PTSUNNY   91  66  43 SW12      29.99F HX  94
GOLDEN TRNGL   SUNNY     84  70  61 W12G18    29.99F
HALEYVILLE     FAIR      81  70  69 SW14G20   30.02F
JACKSON TN     PTSUNNY   80  69  69 SW14      29.90F
MEMPHIS        CLOUDY    81  69  67 SW12G21   29.92F
NASHVILLE      CLOUDY    78  73  84 S8        29.93S
ROME           LGT RAIN  82  72  71 SW8       29.98F
SAVANNAH       MOSUNNY   81  32  17 SW10      29.94S
TUPELO         CLOUDY    80  69  69 W12G20    29.96F
TUSCALOOSA     CLOUDY    89  69  51 SW10G21   30.01F HX  93
$$

...GULF COAST WEATHER...

CITY           SKY/WX    TMP DP  RH WIND       PRES   REMARKS
GULFPORT       PTSUNNY   86  77  74 S8        30.08F HX  97
PASCAGOULA     PTSUNNY   86  76  71 SW10G17   30.09F HX  96
MOBILE         PTSUNNY   85  75  72 S14       30.09F HX  93
PENSACOLA      CLOUDY    87  71  58 SW14      30.08F HX  93
DESTIN         CLOUDY    83  73  72 SW8       30.10S
PANAMA CITY    PTSUNNY   83  71  67 W17       30.10F
APPALACHICOLA  CLOUDY    78  73  84 NE5       30.11F
$$




USA.gov is the U.S. government's official web portal to all federal, state and local government web resources and services.